RH
41 42 43 46 42 45 46 50 48 55 56 59 63 62 70 78 82 81 84 69 70 63
47 50 50 46 43 46 47 37 50 54 56 58 58 63 72 80 74 70 67 65 57 58
48 49 48 46 45 44 48 48 51 52 53 56 59 65 66 65 59 64 68 63 60 68
46 50 46 45 44 44 48 49 48 49 52 52 52 53 58 58 56 62 58 60 65 70
48 44 46 44 43 46 48 49 48 50 51 51 51 55 59 59 54 60 71 69 64 65
43 52 45 43 45 45 47 49 50 49 54 51 54 56 58 55 53 56 64 62 68 64
47 45 44 44 47 48 47 50 52 55 53 53 49 45 46 46 61 61 58 62 60 56
44 42 42 48 47 50 51 49 50 52 54 55 56 47 61 59 58 60 57 56 50 48
38 39 46 48 54 55 54 51 47 50 53 55 48 80 70 58 58 57 56 60 56 52
42 47 51 46 44 46 49 51 51 52 50 52 77 79 67 62 55 58 65 63 59 49
46 48 42 42 41 47 48 51 54 52 50 53 68 77 67 61 61 68 65 62 61 60
48 34 36 39 46 47 49 52 54 49 49 56 73 73 65 59 70 75 70 61 59 57
44 34 38 46 48 52 53 51 51 52 54 66 78 72 64 59 88 83 87 72 64 62
44 41 43 49 52 55 58 61 72 71 69 67 80 77 66 63 78 92 90 83 82 83
Wind_Speed
7 4 5 4 3 1 1 2 4 3 5 6 5 2 4 3 3 4 4 4 5 0
6 6 5 5 3 3 2 3 4 4 6 6 1 1 1 4 5 2 2 3 5 3
7 6 6 4 4 2 1 3 4 5 5 6 5 5 5 4 3 4 2 3 4 5
7 6 5 5 4 2 1 4 5 5 5 5 6 6 5 5 5 2 3 4 3 4
7 6 5 4 4 2 2 3 4 5 5 6 5 5 6 6 5 6 7 8 6 6
7 4 5 3 2 1 2 3 4 5 6 4 4 4 6 6 2 3 4 2 4 5
7 6 4 3 1 1 2 3 5 6 6 3 3 5 6 5 7 5 4 3 4 5
6 5 3 2 3 3 1 4 6 6 6 3 1 3 5 5 5 6 6 5 5 4
5 3 4 4 3 4 6 6 5 5 5 4 3 10 9 4 3 5 6 5 5 4
5 5 3 6 6 6 6 6 5 6 4 3 8 11 10 6 0 5 5 5 4 5
1 4 8 5 6 6 5 5 4 5 5 2 7 11 10 6 2 6 5 4 5 4
9 5 6 5 4 4 5 5 5 4 3 6 8 11 9 4 2 4 4 4 5 3
12 11 7 6 6 4 4 5 4 2 5 8 9 11 9 4 0 3 3 4 5 3
11 6 6 5 5 5 5 5 3 5 4 5 9 9 11 9 2 2 1 2 3 2
Wind_Direction
132 124 116 118 94 73 35 331 327 343 324 308 45 11 37 19 313 263 250 248 265 297
131 106 129 139 113 80 20 306 351 339 313 309 244 193 220 242 248 271 316 45 291 240
142 156 148 142 126 91 311 317 311 316 314 321 309 222 240 267 292 299 258 285 323 20
159 157 170 161 141 124 317 299 317 315 313 308 306 312 330 318 302 272 286 278 10 321
165 178 181 173 140 151 272 304 313 305 298 284 293 7 343 328 328 6 21 348 358 350
184 193 184 167 157 222 291 328 303 301 283 295 352 329 273 267 0 4 256 287 4 318
185 180 161 136 203 259 294 323 296 278 277 319 306 316 326 17 20 344 329 314 309 308
145 137 136 196 218 254 225 270 258 266 268 251 310 305 52 28 0 344 325 317 326 347
115 136 78 9 278 260 237 245 259 279 282 269 194 142 116 92 10 310 304 328 334 342
88 58 251 245 249 248 243 240 245 253 272 267 120 144 130 116 345 298 296 323 340 331
78 266 242 237 250 263 259 246 248 247 258 231 133 156 143 141 261 272 311 350 314 309
263 349 290 297 312 299 281 274 252 249 203 117 139 159 154 158 301 303 321 315 305 293
13 288 336 327 302 302 309 303 288 353 78 93 142 166 163 169 25 303 295 301 305 88
267 305 274 309 332 327 305 292 268 127 103 113 149 172 186 171 185 247 343 310 300 146